Location: Cuiry
(49.3858°N, 3.7708°E)
Time: 00:49:45
(UTC+00:00)

UNK - Pass Details

Date: 19 April 2026
Orbit: 653 x 673 km, 98.4° (Epoch: 19 May)

Event Time Altitude Azimuth Distance (km) Brightness Sun altitude
Rises 03:33:52 0° 143° (SE) 3,011 7.1 -11.4°
Reaches altitude 10° 03:36:11 10° 137° (SE) 2,100 6.4 -11.0°
Maximum altitude 03:40:28 41° 67° (ENE) 974 5.2 -10.4°
Drops below altitude 10° 03:44:47 10° 358° (N) 2,105 6.7 -9.8°
Sets 03:47:06 0° 352° (N) 3,020 7.4 -9.5°
